TimeCDT,TemperatureF,Dew PointF,Humidity,Sea Level PressureIn,VisibilityMPH,Wind Direction,Wind SpeedMPH,Gust SpeedMPH,PrecipitationIn,Events,Conditions,WindDirDegrees,DateUTC
12:53 AM,34.0,27.0,75,29.82,10.0,Variable,3.5,-,N/A,,Overcast,0,2013-04-13 05:53:00
1:53 AM,34.0,28.0,79,29.82,10.0,WSW,8.1,-,N/A,,Overcast,250,2013-04-13 06:53:00
2:32 AM,33.8,28.4,81,29.79,10.0,WSW,6.9,-,N/A,,Overcast,250,2013-04-13 07:32:00
2:53 AM,34.0,28.0,79,29.81,10.0,WSW,6.9,-,N/A,,Overcast,250,2013-04-13 07:53:00
3:53 AM,34.0,28.0,79,29.81,10.0,Variable,5.8,-,0.00,,Overcast,0,2013-04-13 08:53:00
4:30 AM,33.8,28.4,81,29.79,-9999.0,WSW,5.8,-,N/A,,Overcast,250,2013-04-13 09:30:00
4:53 AM,33.1,28.0,82,29.81,10.0,West,6.9,-,N/A,,Overcast,260,2013-04-13 09:53:00
5:53 AM,33.1,28.0,82,29.82,9.0,West,9.2,-,0.00,Snow,Light Snow,260,2013-04-13 10:53:00
6:53 AM,33.8,28.4,81,29.80,9.0,Variable,5.8,-,N/A,Snow,Light Snow,0,2013-04-13 11:53:00
7:25 AM,33.8,26.6,75,29.82,9.0,West,9.2,20.7,0.00,,Overcast,280,2013-04-13 12:25:00
7:53 AM,34.0,27.0,75,29.86,10.0,West,8.1,17.3,0.00,,Mostly Cloudy,280,2013-04-13 12:53:00
8:37 AM,33.8,26.6,75,29.84,10.0,WNW,9.2,17.3,N/A,,Overcast,290,2013-04-13 13:37:00
8:53 AM,35.1,26.1,70,29.87,10.0,West,10.4,19.6,N/A,,Overcast,270,2013-04-13 13:53:00
9:42 AM,35.6,24.8,65,29.86,10.0,West,8.1,-,N/A,,Overcast,280,2013-04-13 14:42:00
9:53 AM,35.1,25.0,67,29.89,10.0,WNW,10.4,17.3,N/A,,Overcast,300,2013-04-13 14:53:00
10:53 AM,35.1,24.1,64,29.91,10.0,West,11.5,20.7,N/A,,Overcast,280,2013-04-13 15:53:00
11:53 AM,37.0,24.1,59,29.91,10.0,West,10.4,20.7,N/A,,Overcast,280,2013-04-13 16:53:00
12:53 PM,37.0,25.0,62,29.92,10.0,West,10.4,17.3,N/A,,Overcast,280,2013-04-13 17:53:00
1:53 PM,37.0,24.1,59,29.93,9.0,WNW,11.5,19.6,0.00,Snow,Light Snow,290,2013-04-13 18:53:00
2:53 PM,36.0,26.1,67,29.94,10.0,WNW,13.8,19.6,0.00,,Overcast,300,2013-04-13 19:53:00
3:10 PM,35.6,26.6,70,29.91,10.0,West,10.4,18.4,0.00,Snow,Light Snow,270,2013-04-13 20:10:00
3:21 PM,37.4,26.6,65,29.90,9.0,WNW,8.1,18.4,0.00,,Overcast,290,2013-04-13 20:21:00
3:53 PM,37.0,26.1,65,29.94,10.0,West,11.5,19.6,0.00,,Overcast,280,2013-04-13 20:53:00
4:53 PM,37.9,25.0,60,29.94,10.0,WNW,9.2,-,N/A,,Overcast,290,2013-04-13 21:53:00
5:53 PM,37.9,24.1,57,29.95,10.0,West,9.2,-,N/A,,Overcast,280,2013-04-13 22:53:00
6:53 PM,37.4,23.0,56,29.93,10.0,Variable,6.9,-,N/A,,Overcast,0,2013-04-13 23:53:00
7:53 PM,37.0,24.1,59,29.97,10.0,WNW,4.6,-,N/A,,Overcast,290,2013-04-14 00:53:00
8:53 PM,36.0,24.1,62,29.98,10.0,NNW,3.5,-,N/A,,Overcast,330,2013-04-14 01:53:00
9:53 PM,34.0,26.1,73,29.99,10.0,Calm,Calm,-,N/A,,Mostly Cloudy,0,2013-04-14 02:53:00
10:53 PM,33.1,28.0,82,30.01,10.0,Calm,Calm,-,N/A,,Overcast,0,2013-04-14 03:53:00
11:53 PM,33.1,28.0,82,30.02,10.0,Calm,Calm,-,N/A,,Overcast,0,2013-04-14 04:53:00